Abere, France

8:36 AM CEST on April 29, 2017 (GMT +0200)
Abere

Weather History for 07610 - March, 2014

Change the Weather History Date:

Thursday, March 27, 2014

  Actual Average Record
Temperature  
Mean Temperature 43 °F -  
Max Temperature 53 °F 61 °F - ()
Min Temperature 33 °F 44 °F - ()
Degree Days  
Heating Degree Days 22    
Moisture  
Dew Point 37 °F    
Average Humidity 79    
Maximum Humidity 100    
Minimum Humidity 51    
Precipitation  
Precipitation 0.01 in - - ()
Sea Level Pressure  
Sea Level Pressure 29.88 in    
Wind  
Wind Speed 4 mph ()    
Max Wind Speed 17 mph    
Max Gust Speed -    
Visibility 6.9 miles    
Events Rain    
T = Trace of Precipitation, MM = Missing Value Source: Averaged Metar Reports

Daily Weather History Graph

Daily Weather History Graph

Search for Another Location

Airport or City:

Trip Planner

Search our weather history database for the weather conditions in past years. The results will help you decide how hot, cold, wet, or windy it might be!

Date:

Astronomy

Mar. 27, 2014 Rise Set
Actual Time 6:52 AM CET 7:22 PM CET
Civil Twilight 6:24 AM CET 7:50 PM CET
Nautical Twilight 5:50 AM CET 8:24 PM CET
Astronomical Twilight 5:15 AM CET 8:59 PM CET
Moon 4:39 AM CET (3/27) 3:47 PM CET (3/27)
Length of Visible Light 13h 26m
Length of Day
12h 29m
Waning Crescent, 15% of the Moon is Illuminated
Mar 27
Waning Crescent
Mar 30
New
Apr 7
First Quarter
Apr 15
Full
Apr 22
Last Quarter

Hourly Weather History & Observations

Time (CET) Temp. Windchill Dew Point Humidity Pressure Visibility Wind Dir Wind Speed Gust Speed Precip Events Conditions
12:00 AM 38 °F - 36 °F 88% 30.02 in 4 mi ESE 2.3 mph - -   Clear
12:00 AM 37.4 °F - 35.6 °F 93% 29.98 in 6.2 mi ESE 2.3 mph - N/A   Mostly Cloudy
12:30 AM 37.4 °F - 35.6 °F 93% 29.98 in 3.7 mi Variable 2.3 mph - N/A   Partly Cloudy
1:00 AM 37 °F - 35 °F 92% 30.01 in 4 mi SE 2.3 mph - -   Clear
1:00 AM 37.4 °F - 35.6 °F 93% 29.98 in 4.3 mi SE 2.3 mph - N/A   Unknown
1:30 AM 35.6 °F 32.8 °F 35.6 °F 100% 29.95 in 3.7 mi ESE 3.5 mph - N/A   Unknown
2:00 AM 36 °F - 35 °F 92% 29.99 in 2 mi ESE 3.5 mph - -   Mist
2:00 AM 35.6 °F 32.8 °F 33.8 °F 93% 29.95 in 3.7 mi ESE 3.5 mph - N/A   Unknown
2:30 AM 35.6 °F 32.8 °F 33.8 °F 93% 29.95 in 3.1 mi ESE 3.5 mph - N/A   Mist
3:00 AM 35 °F - 34 °F 94% 29.97 in 3 mi SE 3.5 mph - -   Clear
3:00 AM 35.6 °F 32.8 °F 33.8 °F 93% 29.92 in 3.1 mi SE 3.5 mph - N/A   Mist
3:30 AM 35.6 °F 32.8 °F 33.8 °F 93% 29.92 in 3.1 mi SE 3.5 mph - N/A   Mist
4:00 AM 35 °F - 33 °F 92% 29.95 in 4 mi ESE 4.6 mph - -   Clear
4:00 AM 35.6 °F 31.7 °F 33.8 °F 93% 29.92 in 5.0 mi ESE 4.6 mph - N/A   Unknown
4:30 AM 33.8 °F 29.6 °F 33.8 °F 100% 29.89 in 3.1 mi SE 4.6 mph - N/A   Mist
5:00 AM 34 °F - 33 °F 93% 29.94 in 4 mi ESE 5.8 mph - -   Clear
5:00 AM 33.8 °F 28.6 °F 32.0 °F 93% 29.89 in 3.7 mi ESE 5.8 mph - N/A   Unknown
5:30 AM 33.8 °F 30.8 °F 32.0 °F 93% 29.89 in 4.3 mi ESE 3.5 mph - N/A   Unknown
6:00 AM 34 °F - 33 °F 93% 29.93 in 5 mi ESE 4.6 mph - -   Clear
6:00 AM 33.8 °F 29.6 °F 32.0 °F 93% 29.89 in 5.0 mi ESE 4.6 mph - N/A   Unknown
6:30 AM 33.8 °F 29.6 °F 32.0 °F 93% 29.89 in 3.7 mi SE 4.6 mph - N/A   Unknown
7:00 AM 34 °F - 32 °F 91% 29.93 in 9 mi ESE 3.5 mph - -   Partly Cloudy
7:00 AM 33.8 °F 30.8 °F 32.0 °F 93% 29.89 in 6.2 mi ESE 3.5 mph - N/A   Mostly Cloudy
7:30 AM 33.8 °F - 33.8 °F 100% 29.89 in 6.2 mi Variable 1.2 mph - N/A   Scattered Clouds
8:00 AM 35 °F - 33 °F 89% 29.93 in 9 mi SSE 5.8 mph - -   Mostly Cloudy
8:00 AM 35.6 °F 30.7 °F 33.8 °F 93% 29.89 in 6.2 mi SSE 5.8 mph - N/A   Scattered Clouds
8:30 AM 37.4 °F 34.9 °F 33.8 °F 87% 29.89 in 6.2 mi Variable 3.5 mph - N/A   Mostly Cloudy
9:00 AM 38 °F - 35 °F 86% 29.93 in 19 mi ESE 3.5 mph - -   Mostly Cloudy
9:00 AM 37.4 °F 34.9 °F 35.6 °F 93% 29.89 in 6.2 mi SE 3.5 mph - N/A   Mostly Cloudy
9:30 AM 39.2 °F - 35.6 °F 87% 29.89 in 6.2 mi SSE 2.3 mph - N/A   Mostly Cloudy
10:00 AM 43 °F - 37 °F 72% 29.92 in 19 mi SW 2.3 mph - -   Mostly Cloudy
10:00 AM 42.8 °F - 35.6 °F 76% 29.89 in 6.2 mi Calm Calm - N/A   Mostly Cloudy
10:30 AM 44.6 °F 42.2 °F 37.4 °F 76% 29.89 in 6.2 mi SW 4.6 mph - N/A   Scattered Clouds
11:00 AM 47 °F - 40 °F 69% 29.91 in 19 mi WSW 4.6 mph - -   Mostly Cloudy
11:00 AM 48.2 °F - 39.2 °F 71% 29.89 in 6.2 mi WSW 4.6 mph - N/A   Mostly Cloudy
11:30 AM 48.2 °F - 41.0 °F 76% 29.89 in 6.2 mi WSW 6.9 mph - N/A   Mostly Cloudy
12:00 PM 49 °F - 41 °F 66% 29.90 in 19 mi West 10.4 mph - -   Mostly Cloudy
12:00 PM 48.2 °F - 41.0 °F 76% 29.89 in 6.2 mi West 10.4 mph - N/A   Mostly Cloudy
12:30 PM 50.0 °F - 41.0 °F 71% 29.86 in 6.2 mi West 8.1 mph - N/A   Mostly Cloudy
1:00 PM 51 °F - 42 °F 61% 29.88 in 19 mi WNW 8.1 mph - -   Mostly Cloudy
1:00 PM 50.0 °F - 42.8 °F 76% 29.86 in 6.2 mi WNW 9.2 mph - N/A   Scattered Clouds
1:30 PM 46.4 °F 39.5 °F 41.0 °F 81% 29.86 in 6.2 mi WNW 17.3 mph - N/A Rain Light Rain Showers
2:00 PM 50 °F - 43 °F 69% 29.87 in 19 mi NW 8.1 mph - - Rain Light Rain Showers
2:00 PM 50.0 °F - 42.8 °F 76% 29.86 in 6.2 mi NW 8.1 mph - N/A   Scattered Clouds
2:30 PM 51.8 °F - 42.8 °F 71% 29.83 in 6.2 mi North 4.6 mph - N/A   Scattered Clouds
3:00 PM 51 °F - 40 °F 56% 29.85 in 19 mi NNW 4.6 mph - - Rain Light Rain Showers
3:00 PM 51.8 °F - 39.2 °F 62% 29.83 in 6.2 mi NNW 4.6 mph - N/A   Scattered Clouds
3:30 PM 51.8 °F - 42.8 °F 71% 29.83 in 6.2 mi NNW 5.8 mph - N/A   Scattered Clouds
4:00 PM 53 °F - 40 °F 51% 29.83 in 31 mi NNW 5.8 mph - -   Partly Cloudy
4:00 PM 53.6 °F - 41.0 °F 62% 29.80 in 6.2 mi North 6.9 mph - N/A   Scattered Clouds
4:30 PM 51.8 °F - 41.0 °F 67% 29.80 in 6.2 mi North 4.6 mph - N/A   Scattered Clouds
5:00 PM 53 °F - 42 °F 57% 29.81 in 31 mi NNW 6.9 mph - -   Partly Cloudy
5:00 PM 53.6 °F - 41.0 °F 62% 29.80 in 6.2 mi North 6.9 mph - N/A   Scattered Clouds
5:37 PM 53.6 °F - 41.0 °F 62% 29.80 in 6.2 mi NNW 6.9 mph - N/A   Scattered Clouds
6:00 PM 51 °F - 39 °F 54% 29.82 in 31 mi NNW 5.8 mph - -   Partly Cloudy
6:00 PM 51.8 °F - 39.2 °F 62% 29.80 in 6.2 mi NNW 5.8 mph - N/A   Scattered Clouds
6:30 PM 50.0 °F - 41.0 °F 71% 29.80 in 6.2 mi North 4.6 mph - N/A   Scattered Clouds
7:00 PM 50 °F - 40 °F 58% 29.83 in 31 mi NNE 4.6 mph - -   Partly Cloudy
7:00 PM 50.0 °F - 39.2 °F 66% 29.80 in 6.2 mi NNE 4.6 mph - N/A   Partly Cloudy
7:30 PM 48.2 °F - 39.2 °F 71% 29.80 in 6.2 mi ENE 5.8 mph - N/A   Partly Cloudy
8:00 PM 47 °F - 39 °F 65% 29.83 in 31 mi East 4.6 mph - -   Scattered Clouds
8:00 PM 46.4 °F 44.3 °F 39.2 °F 76% 29.80 in 6.2 mi East 4.6 mph - N/A   Partly Cloudy
8:30 PM 46.4 °F 44.3 °F 39.2 °F 76% 29.80 in 6.2 mi East 4.6 mph - N/A   Partly Cloudy
9:00 PM 46 °F - 39 °F 68% 29.84 in 31 mi ESE 5.8 mph - -   Scattered Clouds
9:00 PM 46.4 °F 43.5 °F 39.2 °F 76% 29.83 in 6.2 mi East 5.8 mph - N/A   Partly Cloudy
9:30 PM 46.4 °F 44.3 °F 39.2 °F 76% 29.80 in 6.2 mi ESE 4.6 mph - N/A   Unknown
10:00 PM 46 °F - 38 °F 66% 29.83 in 37 mi East 9.2 mph - -   Clear
10:00 PM 46.4 °F 41.9 °F 39.2 °F 76% 29.80 in 6.2 mi East 9.2 mph - N/A   Unknown
10:30 PM 46.4 °F 41.9 °F 37.4 °F 71% 29.80 in 6.2 mi East 9.2 mph - N/A   Unknown
11:00 PM 46 °F - 38 °F 65% 29.82 in 37 mi East 8.1 mph - -   Clear
11:00 PM 46.4 °F 42.4 °F 37.4 °F 71% 29.80 in 6.2 mi East 8.1 mph - N/A   Unknown
11:30 PM 46.4 °F 42.4 °F 37.4 °F 71% 29.80 in 6.2 mi East 8.1 mph - N/A   Unknown